Opa Locka, FL

9:20 AM EDT on August 22, 2017 (GMT -0400)
Opa Locka

Weather History for KOPF - September, 2013

Change the Weather History Date:

Wednesday, September 11, 2013

  Actual Average Record
Temperature  
Mean Temperature 83 °F -  
Max Temperature 90 °F 89 °F 94 °F (1948)
Min Temperature 75 °F 75 °F 65 °F (1948)
Cooling Degree Days 18    
Growing Degree Days 33 (Base 50)    
Moisture  
Dew Point 74 °F    
Average Humidity 84    
Maximum Humidity 94    
Minimum Humidity 61    
Precipitation  
Precipitation 0.64 in - - ()
Sea Level Pressure  
Sea Level Pressure 30.02 in    
Wind  
Wind Speed 5 mph (East)    
Max Wind Speed 13 mph    
Max Gust Speed 23 mph    
Visibility 10 miles    
Events Rain    
Averages and records for this station are not official NWS values.
T = Trace of Precipitation, MM = Missing Value Source: NWS Daily Summary

Daily Weather History Graph

Daily Weather History Graph

Search for Another Location

Airport or City:

Trip Planner

Search our weather history database for the weather conditions in past years. The results will help you decide how hot, cold, wet, or windy it might be!

Date:

Astronomy

Sep. 11, 2013 Rise Set
Actual Time 7:05 AM EDT 7:29 PM EDT
Civil Twilight 6:42 AM EDT 7:52 PM EDT
Nautical Twilight 6:15 AM EDT 8:19 PM EDT
Astronomical Twilight 5:47 AM EDT 8:46 PM EDT
Moon 12:55 PM EDT (9/11) No Moon Set
Length of Visible Light 13h 10m
Length of Day
12h 24m
Waxing Crescent, 38% of the Moon is Illuminated
Sep 11
Waxing Crescent
Sep 12
First Quarter
Sep 19
Full
Sep 26
Last Quarter
Oct 4
New

Hourly Weather History & Observations

Time (EDT) Temp. Heat Index Dew Point Humidity Pressure Visibility Wind Dir Wind Speed Gust Speed Precip Events Conditions
12:53 AM 78.1 °F - 73.9 °F 87% 30.02 in 10.0 mi ESE 4.6 mph - N/A   Partly Cloudy
1:53 AM 78.1 °F - 75.0 °F 90% 30.01 in 10.0 mi Calm Calm - N/A   Clear
2:53 AM 77.0 °F - 75.0 °F 94% 29.99 in 10.0 mi East 5.8 mph - N/A   Clear
3:53 AM 77.0 °F - 75.0 °F 94% 29.98 in 10.0 mi East 3.5 mph - N/A   Clear
4:53 AM 77.0 °F - 75.0 °F 94% 29.98 in 10.0 mi East 3.5 mph - N/A   Clear
5:53 AM 78.1 °F - 75.0 °F 90% 30.00 in 10.0 mi ENE 4.6 mph - N/A   Clear
6:53 AM 78.1 °F - 75.0 °F 90% 30.01 in 10.0 mi East 4.6 mph - N/A   Clear
7:53 AM 80.1 °F 85.1 °F 75.0 °F 85% 30.02 in 10.0 mi East 3.5 mph - N/A   Partly Cloudy
8:53 AM 82.9 °F 90.2 °F 75.0 °F 77% 30.04 in 10.0 mi ESE 8.1 mph - N/A   Mostly Cloudy
9:05 AM 78.8 °F - 73.4 °F 83% 30.04 in 5.0 mi ESE 11.5 mph 21.9 mph 0.06 in Rain Heavy Rain
9:26 AM 80.6 °F 85.4 °F 73.4 °F 79% 30.03 in 5.0 mi ESE 4.6 mph - 0.31 in Rain Light Rain
9:53 AM 84.0 °F 93.7 °F 77.0 °F 79% 30.04 in 10.0 mi ESE 5.8 mph - 0.31 in   Partly Cloudy
10:53 AM 87.1 °F 96.3 °F 75.0 °F 67% 30.04 in 10.0 mi ESE 9.2 mph - N/A   Mostly Cloudy
11:53 AM 88.0 °F 95.6 °F 73.0 °F 61% 30.04 in 10.0 mi ESE 10.4 mph - N/A   Scattered Clouds
12:53 PM 89.1 °F 98.0 °F 73.9 °F 61% 30.04 in 10.0 mi ESE 12.7 mph 21.9 mph N/A   Partly Cloudy
1:53 PM 82.0 °F 87.9 °F 73.9 °F 76% 30.02 in 10.0 mi ENE 10.4 mph 23.0 mph N/A   Mostly Cloudy
2:53 PM 82.0 °F 87.9 °F 73.9 °F 76% 30.01 in 10.0 mi ENE 8.1 mph - N/A   Clear
3:53 PM 81.0 °F 86.2 °F 73.9 °F 79% 30.02 in 10.0 mi East 10.4 mph - N/A   Partly Cloudy
4:53 PM 79.0 °F - 72.0 °F 79% 29.99 in 10.0 mi SSE 3.5 mph - 0.00 in Rain Light Rain
5:53 PM 79.0 °F - 73.0 °F 82% 29.99 in 10.0 mi NNE 4.6 mph - 0.02 in Rain Light Rain
6:53 PM 80.1 °F 83.8 °F 72.0 °F 76% 30.01 in 10.0 mi Calm Calm - 0.00 in   Partly Cloudy
7:53 PM 80.1 °F 84.5 °F 73.9 °F 81% 30.00 in 10.0 mi Calm Calm - N/A   Scattered Clouds
8:25 PM 78.8 °F - 75.2 °F 89% 30.01 in 10.0 mi ENE 5.8 mph - N/A   Mostly Cloudy
8:33 PM 78.8 °F - 75.2 °F 89% 30.01 in 10.0 mi ENE 5.8 mph - N/A   Mostly Cloudy
8:53 PM 79.0 °F - 75.0 °F 88% 30.01 in 10.0 mi NNE 3.5 mph - N/A   Mostly Cloudy
9:15 PM 78.8 °F - 75.2 °F 89% 30.01 in 10.0 mi NW 4.6 mph - 0.00 in Rain Light Rain
9:50 PM 77.0 °F - 75.2 °F 94% 30.02 in 10.0 mi NW 5.8 mph - 0.05 in Rain Light Rain
9:53 PM 77.0 °F - 75.0 °F 94% 30.03 in 10.0 mi NNW 3.5 mph - 0.05 in Rain Light Rain
10:53 PM 77.0 °F - 73.9 °F 90% 30.03 in 10.0 mi Calm Calm - 0.22 in   Scattered Clouds
11:53 PM 75.9 °F - 73.9 °F 94% 30.04 in 10.0 mi SE 12.7 mph - 0.04 in Rain Light Rain